Location: Arthez
(43.0833°N, 0.2500°W)
Time: 08:07:00
(UTC+00:00)

CSL-04 Rocket - Pass Details

Date: 23 October 2021
Orbit: 805 x 860 km, 98.9° (Epoch: 02 December)

Event Time Altitude Azimuth Distance (km) Brightness Sun altitude
Exits shadow 19:13:00 56° 117° (ESE) 1,016 3.7 -23.9°
Maximum altitude 19:13:54 65° 72° (ENE) 945 3.6 -24.1°
Drops below altitude 10° 19:19:24 10° 352° (N) 2,507 6.3 -25.1°
Sets 19:21:49 0° 349° (N) 3,448 7.1 -25.5°
